Location: Driftpile
(55.3500°N, 115.7667°W)
Time: 08:35:07
(UTC+00:00)

N. Korean satellite - Pass Details

Date: 05 December 2021
Orbit: 447 x 490 km, 97.3° (Epoch: 26 January)

Event Time Altitude Azimuth Distance (km) Brightness Sun altitude
Rises 00:52:26 0° 199° (SSW) 2,523 10.8 -12.7°
Reaches altitude 10° 00:54:51 10° 216° (SW) 1,641 10.1 -13.0°
Maximum altitude 00:57:36 21° 267° (W) 1,104 9.3 -13.4°
Drops below altitude 10° 01:00:21 10° 319° (NW) 1,631 9.5 -13.7°
Sets 01:02:45 0° 336° (NNW) 2,503 10.3 -14.0°
